Weather History for KBXA - December, 2013

Change the Weather History Date:

Friday, December 6, 2013

  Actual Average Record
Temperature  
Mean Temperature 63 °F -  
Max Temperature 84 °F 64 °F 84 °F (2013)
Min Temperature 42 °F 38 °F 42 °F (2013)
Degree Days  
Heating Degree Days 2    
Growing Degree Days 13 (Base 50)    
Moisture  
Dew Point 60 °F    
Average Humidity 80    
Maximum Humidity 87    
Minimum Humidity 58    
Precipitation  
Precipitation 0.02 in - - ()
Sea Level Pressure  
Sea Level Pressure 30.05 in    
Wind  
Wind Speed 10 mph (SW)    
Max Wind Speed 21 mph    
Max Gust Speed 29 mph    
Visibility 10 miles    
Events Rain , Thunderstorm    
Averages and records for this station are not official NWS values.
T = Trace of Precipitation, MM = Missing Value Source: NWS Daily Summary

Daily Weather History Graph

Daily Weather History Graph

Search for Another Location

Airport or City:

Trip Planner

Search our weather history database for the weather conditions in past years. The results will help you decide how hot, cold, wet, or windy it might be!

Date:

Astronomy

Dec. 06, 2013 Rise Set
Actual Time 6:43 AM CST 4:57 PM CST
Civil Twilight 6:17 AM CST 5:24 PM CST
Nautical Twilight 5:47 AM CST 5:54 PM CST
Astronomical Twilight 5:17 AM CST 6:23 PM CST
Moon 9:58 AM CST (12/6) 9:18 PM CST (12/6)
Length of Visible Light 11h 06m
Length of Day
10h 14m
Waxing Crescent, 19% of the Moon is Illuminated
Dec 6
Waxing Crescent
Dec 9
First Quarter
Dec 17
Full
Dec 25
Last Quarter
Jan 1
New

Hourly Weather History & Observations

Time (CST) Temp. Windchill Dew Point Humidity Pressure Visibility Wind Dir Wind Speed Gust Speed Precip Events Conditions
12:15 AM 75.4 °F - 70.7 °F 85% 29.98 in 10.0 mi South 8.1 mph - N/A   Unknown
12:35 AM 75.4 °F - 70.7 °F 85% 29.98 in 10.0 mi SSW 9.2 mph - N/A   Unknown
12:55 AM 75.4 °F - 70.3 °F 84% 29.98 in 10.0 mi SSW 9.2 mph - N/A   Unknown
1:15 AM 75.2 °F - 70.7 °F 86% 29.98 in 10.0 mi SSW 6.9 mph - N/A   Unknown
1:35 AM 74.8 °F - 70.3 °F 86% 29.97 in 10.0 mi SSW 5.8 mph - N/A   Unknown
1:55 AM 75.0 °F - 70.2 °F 85% 29.97 in 10.0 mi SSW 9.2 mph - N/A   Overcast
2:15 AM 75.0 °F - 70.2 °F 85% 29.96 in 10.0 mi South 8.1 mph - N/A   Overcast
2:35 AM 74.8 °F - 70.2 °F 85% 29.96 in 10.0 mi South 8.1 mph - N/A   Overcast
2:55 AM 74.8 °F - 70.2 °F 85% 29.96 in 10.0 mi SSW 9.2 mph - N/A Rain Light Rain
3:15 AM 74.8 °F - 70.2 °F 85% 29.96 in 10.0 mi South 11.5 mph - N/A   Overcast
3:35 AM 74.8 °F - 70.2 °F 85% 29.96 in 10.0 mi South 9.2 mph - N/A   Overcast
3:55 AM 74.7 °F - 70.2 °F 86% 29.96 in 10.0 mi South 10.4 mph - N/A   Overcast
4:15 AM 74.7 °F - 70.2 °F 86% 29.95 in 10.0 mi SSW 9.2 mph - N/A   Overcast
4:35 AM 74.7 °F - 70.0 °F 85% 29.96 in 10.0 mi South 8.1 mph - N/A   Overcast
4:55 AM 74.7 °F - 70.0 °F 85% 29.96 in 10.0 mi SSW 6.9 mph - N/A   Overcast
5:15 AM 74.5 °F - 70.0 °F 86% 29.97 in 7.0 mi South 9.2 mph - N/A Rain Rain
5:35 AM 74.3 °F - 70.0 °F 86% 29.97 in 10.0 mi SSW 5.8 mph - N/A Rain Light Rain
5:55 AM 74.3 °F - 70.0 °F 86% 29.97 in 10.0 mi SSW 9.2 mph - N/A   Overcast
6:15 AM 74.3 °F - 69.8 °F 86% 29.98 in 10.0 mi SSW 9.2 mph - N/A   Overcast
6:35 AM 74.3 °F - 70.0 °F 86% 29.99 in 10.0 mi SSW 8.1 mph - N/A   Overcast
6:55 AM 74.3 °F - 69.8 °F 86% 30.00 in 10.0 mi South 9.2 mph - N/A   Overcast
7:15 AM 74.3 °F - 69.8 °F 86% 30.01 in 10.0 mi SSW 8.1 mph - N/A   Overcast
7:35 AM 74.7 °F - 69.8 °F 85% 30.01 in 10.0 mi SSW 9.2 mph - N/A   Overcast
7:55 AM 74.7 °F - 69.8 °F 85% 30.02 in 10.0 mi SSW 9.2 mph - N/A   Overcast
8:15 AM 74.8 °F - 69.8 °F 84% 30.01 in 10.0 mi SSW 10.4 mph 16.1 mph N/A   Mostly Cloudy
8:35 AM 75.4 °F - 69.8 °F 83% 30.01 in 10.0 mi South 10.4 mph 18.4 mph N/A   Mostly Cloudy
8:55 AM 76.1 °F - 69.8 °F 81% 30.01 in 10.0 mi SSW 8.1 mph 19.6 mph N/A   Mostly Cloudy
9:15 AM 76.6 °F - 70.0 °F 80% 30.02 in 10.0 mi South 10.4 mph - N/A   Overcast
9:35 AM 77.7 °F - 69.6 °F 76% 30.03 in 10.0 mi SSW 12.7 mph 19.6 mph N/A   Overcast
9:55 AM 77.5 °F - 69.1 °F 75% 30.03 in 10.0 mi SSW 12.7 mph 21.9 mph N/A   Overcast
10:15 AM 78.6 °F - 69.1 °F 72% 30.03 in 10.0 mi SSW 17.3 mph - N/A   Overcast
10:35 AM 79.5 °F - 68.7 °F 69% 30.03 in 10.0 mi SSW 12.7 mph 25.3 mph N/A   Mostly Cloudy
10:55 AM 79.9 °F - 68.9 °F 69% 30.03 in 10.0 mi SSW 10.4 mph 20.7 mph N/A Rain Light Rain
11:15 AM 80.6 °F - 69.8 °F 70% 30.02 in 10.0 mi SSW 17.3 mph 21.9 mph N/A   Mostly Cloudy
11:35 AM 80.6 °F - 69.1 °F 68% 30.02 in 10.0 mi SSW 11.5 mph 23.0 mph N/A   Mostly Cloudy
11:55 AM 81.3 °F - 68.9 °F 66% 30.01 in 10.0 mi SSW 10.4 mph 21.9 mph N/A   Mostly Cloudy
12:15 PM 82.6 °F - 68.7 °F 63% 30.00 in 10.0 mi SSW 17.3 mph 24.2 mph N/A   Mostly Cloudy
12:35 PM 82.8 °F - 69.3 °F 64% 29.99 in 10.0 mi SW 16.1 mph 24.2 mph N/A   Mostly Cloudy
12:55 PM 84.0 °F - 68.7 °F 60% 29.98 in 10.0 mi SW 20.7 mph 25.3 mph N/A   Mostly Cloudy
1:15 PM 84.4 °F - 68.4 °F 58% 29.97 in 10.0 mi SSW 18.4 mph 24.2 mph N/A   Scattered Clouds
1:35 PM 83.1 °F - 68.0 °F 60% 29.97 in 10.0 mi SSW 16.1 mph 26.5 mph N/A   Mostly Cloudy
1:55 PM 83.7 °F - 68.7 °F 61% 29.97 in 10.0 mi SSW 16.1 mph 24.2 mph N/A   Scattered Clouds
2:15 PM 81.7 °F - 68.9 °F 65% 29.97 in 10.0 mi SSW 13.8 mph 23.0 mph N/A   Clear
2:35 PM 81.1 °F - 69.4 °F 67% 29.96 in 10.0 mi SSW 10.4 mph 16.1 mph N/A   Clear
2:55 PM 80.8 °F - 69.8 °F 69% 29.96 in 10.0 mi SSW 10.4 mph - N/A   Unknown
3:15 PM 81.0 °F - 69.8 °F 69% 29.97 in 10.0 mi SW 11.5 mph 16.1 mph N/A   Unknown
3:35 PM 66.2 °F - 58.1 °F 75% 30.00 in 10.0 mi NNW 20.7 mph 28.8 mph N/A   Unknown
3:55 PM 60.1 °F - 55.6 °F 85% 30.04 in 7.0 mi NW 16.1 mph 20.7 mph 0.02 in Rain Light Rain
4:15 PM 55.4 °F - 51.3 °F 86% 30.07 in 10.0 mi NNW 16.1 mph 21.9 mph N/A   Unknown
4:35 PM 53.1 °F - 48.4 °F 84% 30.09 in 10.0 mi North 17.3 mph - N/A   Unknown
4:55 PM 51.8 °F - 46.8 °F 83% 30.10 in 10.0 mi North 11.5 mph 20.7 mph N/A   Unknown
5:15 PM 50.9 °F - 45.7 °F 82% 30.11 in 10.0 mi NNW 10.4 mph 20.7 mph N/A   Unknown
5:35 PM 49.5 °F - 44.8 °F 84% 30.13 in 10.0 mi North 17.3 mph - N/A Rain Rain
5:55 PM 48.0 °F - 43.9 °F 86% 30.13 in 10.0 mi North 9.2 mph - N/A Thunderstorm Unknown
6:15 PM 46.9 °F - 43.0 °F 86% 30.13 in 10.0 mi North 11.5 mph 19.6 mph N/A   Overcast
6:35 PM 46.9 °F - 43.3 °F 87% 30.14 in 10.0 mi North 6.9 mph - N/A   Overcast
6:55 PM 47.3 °F - 43.7 °F 87% 30.15 in 10.0 mi North 8.1 mph - N/A   Overcast
7:15 PM 47.3 °F - 43.7 °F 87% 30.16 in 10.0 mi North 4.6 mph - N/A   Overcast
7:35 PM 47.3 °F - 43.2 °F 86% 30.18 in 10.0 mi North 10.4 mph - N/A   Overcast
7:55 PM 46.8 °F - 42.3 °F 84% 30.18 in 10.0 mi North 11.5 mph 17.3 mph N/A   Overcast
8:15 PM 46.4 °F 41.5 °F 42.1 °F 85% 30.18 in 10.0 mi North 10.4 mph - N/A   Overcast
8:35 PM 46.4 °F 41.1 °F 41.9 °F 84% 30.19 in 10.0 mi North 11.5 mph - N/A   Overcast
8:55 PM 45.9 °F 41.2 °F 41.5 °F 85% 30.20 in 10.0 mi North 9.2 mph - N/A   Overcast
9:15 PM 45.7 °F 41.0 °F 41.0 °F 84% 30.21 in 10.0 mi North 9.2 mph 17.3 mph N/A   Overcast
9:35 PM 45.1 °F 39.1 °F 40.5 °F 84% 30.21 in 10.0 mi North 12.7 mph 19.6 mph N/A   Overcast
9:55 PM 45.0 °F 38.5 °F 40.1 °F 83% 30.22 in 10.0 mi North 13.8 mph 17.3 mph N/A   Overcast
10:15 PM 44.6 °F 38.4 °F 39.7 °F 83% 30.23 in 10.0 mi North 12.7 mph - N/A   Overcast
10:35 PM 44.1 °F 40.1 °F 38.8 °F 82% 30.24 in 10.0 mi North 6.9 mph 18.4 mph N/A   Unknown
10:55 PM 43.7 °F 37.3 °F 38.8 °F 83% 30.24 in 10.0 mi North 12.7 mph 18.4 mph N/A   Unknown
11:15 PM 43.3 °F 36.1 °F 38.5 °F 83% 30.24 in 10.0 mi North 15.0 mph 19.6 mph N/A   Unknown
11:35 PM 42.8 °F 36.2 °F 38.8 °F 86% 30.25 in 10.0 mi North 12.7 mph 17.3 mph N/A   Unknown
11:55 PM 42.6 °F 38.4 °F 38.7 °F 86% 30.25 in 10.0 mi North 6.9 mph - N/A Rain Rain